Time,TemperatureF,DewpointF,PressureIn,WindDirection,WindDirectionDegrees,WindSpeedMPH,WindSpeedGustMPH,Humidity,HourlyPrecipIn,Conditions,Clouds,dailyrainin,SoftwareType,DateUTC
2013-01-20 00:04:00,39.0,35.0,30.18,West,271,0.0,5.0,87,0.00,,,0.05,,2013-01-20 05:04:00,
2013-01-20 00:12:00,39.0,35.0,30.18,West,271,0.0,5.0,87,0.00,,,0.05,,2013-01-20 05:12:00,
2013-01-20 00:22:00,39.0,35.0,30.17,SW,233,0.0,6.0,86,0.00,,,0.05,,2013-01-20 05:22:00,
2013-01-20 00:32:00,39.0,35.0,30.17,West,267,0.0,0.0,87,0.00,,,0.05,,2013-01-20 05:32:00,
2013-01-20 00:42:00,39.0,35.0,30.17,West,267,0.0,0.0,87,0.00,,,0.05,,2013-01-20 05:42:00,
2013-01-20 00:53:00,39.0,35.0,30.17,West,273,1.0,5.0,86,0.00,,,0.05,,2013-01-20 05:53:00,
2013-01-20 01:02:00,40.0,36.0,30.18,WNW,284,0.0,0.0,85,0.00,,,0.05,,2013-01-20 06:02:00,
2013-01-20 01:12:00,40.0,36.0,30.18,WNW,284,0.0,0.0,85,0.00,,,0.05,,2013-01-20 06:12:00,
2013-01-20 01:22:00,39.0,35.0,30.18,WNW,284,0.0,0.0,86,0.00,,,0.05,,2013-01-20 06:22:00,
2013-01-20 01:33:00,39.0,35.0,30.18,WSW,240,0.0,3.0,87,0.00,,,0.05,,2013-01-20 06:33:00,
2013-01-20 01:42:00,39.0,35.0,30.18,WSW,240,0.0,3.0,87,0.00,,,0.05,,2013-01-20 06:42:00,
2013-01-20 01:52:00,39.0,36.0,30.18,WSW,240,0.0,0.0,88,0.00,,,0.05,,2013-01-20 06:52:00,
2013-01-20 02:02:00,38.0,35.0,30.17,West,275,0.0,2.0,90,0.00,,,0.05,,2013-01-20 07:02:00,
2013-01-20 02:12:00,38.0,35.0,30.17,West,275,0.0,2.0,90,0.00,,,0.05,,2013-01-20 07:12:00,
2013-01-20 02:22:00,38.0,36.0,30.17,West,275,0.0,0.0,91,0.00,,,0.05,,2013-01-20 07:22:00,
2013-01-20 02:32:00,38.0,35.0,30.17,West,275,0.0,0.0,89,0.00,,,0.05,,2013-01-20 07:32:00,
2013-01-20 02:42:00,38.0,35.0,30.17,West,275,0.0,0.0,89,0.00,,,0.05,,2013-01-20 07:42:00,
2013-01-20 02:52:00,38.0,35.0,30.17,West,275,0.0,0.0,89,0.00,,,0.05,,2013-01-20 07:52:00,
2013-01-20 03:02:00,39.0,36.0,30.17,WSW,244,0.0,5.0,88,0.00,,,0.05,,2013-01-20 08:02:00,
2013-01-20 03:12:00,39.0,36.0,30.17,WSW,244,0.0,5.0,88,0.00,,,0.05,,2013-01-20 08:12:00,
2013-01-20 03:22:00,38.0,35.0,30.17,WSW,244,0.0,0.0,88,0.00,,,0.05,,2013-01-20 08:22:00,
2013-01-20 03:32:00,38.0,35.0,30.17,WSW,244,0.0,0.0,89,0.00,,,0.05,,2013-01-20 08:32:00,
2013-01-20 03:42:00,38.0,35.0,30.17,WSW,244,0.0,0.0,89,0.00,,,0.05,,2013-01-20 08:42:00,
2013-01-20 03:52:00,38.0,35.0,30.17,WSW,244,0.0,0.0,89,0.00,,,0.05,,2013-01-20 08:52:00,
2013-01-20 04:02:00,39.0,35.0,30.17,WSW,251,0.0,7.0,87,0.00,,,0.05,,2013-01-20 09:02:00,
2013-01-20 04:12:00,39.0,35.0,30.17,WSW,251,0.0,7.0,87,0.00,,,0.05,,2013-01-20 09:12:00,
2013-01-20 04:22:00,39.0,35.0,30.17,WSW,251,0.0,0.0,85,0.00,,,0.05,,2013-01-20 09:22:00,
2013-01-20 04:33:00,39.0,35.0,30.17,WSW,251,0.0,0.0,87,0.00,,,0.05,,2013-01-20 09:33:00,
2013-01-20 04:42:00,39.0,35.0,30.17,WSW,251,0.0,0.0,87,0.00,,,0.05,,2013-01-20 09:42:00,
2013-01-20 04:52:00,39.0,36.0,30.17,WSW,251,0.0,0.0,88,0.00,,,0.05,,2013-01-20 09:52:00,
2013-01-20 05:02:00,38.0,36.0,30.16,WSW,251,0.0,0.0,91,0.00,,,0.05,,2013-01-20 10:02:00,
2013-01-20 05:12:00,38.0,36.0,30.16,WSW,251,0.0,0.0,91,0.00,,,0.05,,2013-01-20 10:12:00,
2013-01-20 05:22:00,37.0,35.0,30.16,WSW,251,0.0,0.0,92,0.00,,,0.05,,2013-01-20 10:22:00,
2013-01-20 05:32:00,37.0,35.0,30.17,WSW,251,0.0,0.0,93,0.00,,,0.05,,2013-01-20 10:32:00,
2013-01-20 05:42:00,37.0,35.0,30.17,WSW,251,0.0,0.0,93,0.00,,,0.05,,2013-01-20 10:42:00,
2013-01-20 05:52:00,36.0,35.0,30.17,WSW,251,0.0,0.0,95,0.00,,,0.05,,2013-01-20 10:52:00,
2013-01-20 06:02:00,36.0,35.0,30.16,WSW,251,0.0,0.0,95,0.00,,,0.05,,2013-01-20 11:02:00,
2013-01-20 06:12:00,36.0,35.0,30.16,WSW,251,0.0,0.0,95,0.00,,,0.05,,2013-01-20 11:12:00,
2013-01-20 06:22:00,36.0,35.0,30.16,WSW,251,0.0,0.0,95,0.00,,,0.05,,2013-01-20 11:22:00,
2013-01-20 06:33:00,35.0,34.0,30.17,WSW,251,0.0,0.0,97,0.00,,,0.05,,2013-01-20 11:33:00,
2013-01-20 06:43:00,35.0,34.0,30.17,WSW,251,0.0,0.0,97,0.00,,,0.05,,2013-01-20 11:43:00,
2013-01-20 06:53:00,35.0,34.0,30.17,WSW,251,0.0,0.0,98,0.00,,,0.05,,2013-01-20 11:53:00,
2013-01-20 07:03:00,35.0,35.0,30.17,WSW,251,0.0,0.0,99,0.00,,,0.05,,2013-01-20 12:03:00,
2013-01-20 07:12:00,35.0,35.0,30.17,WSW,251,0.0,0.0,99,0.00,,,0.05,,2013-01-20 12:12:00,
2013-01-20 07:23:00,35.0,35.0,30.17,WSW,251,0.0,0.0,99,0.00,,,0.05,,2013-01-20 12:23:00,
2013-01-20 07:33:00,34.0,34.0,30.18,WSW,251,0.0,0.0,100,0.00,,,0.05,,2013-01-20 12:33:00,
2013-01-20 07:43:00,34.0,34.0,30.18,WSW,251,0.0,0.0,100,0.00,,,0.05,,2013-01-20 12:43:00,
2013-01-20 07:52:00,34.0,34.0,30.18,WSW,251,0.0,0.0,100,0.00,,,0.05,,2013-01-20 12:52:00,
2013-01-20 08:03:00,33.0,33.0,30.19,WSW,251,0.0,0.0,100,0.00,,,0.05,,2013-01-20 13:03:00,
2013-01-20 08:12:00,33.0,33.0,30.19,WSW,251,0.0,0.0,100,0.00,,,0.05,,2013-01-20 13:12:00,
2013-01-20 08:23:00,33.0,33.0,30.19,WSW,251,0.0,0.0,100,0.00,,,0.05,,2013-01-20 13:23:00,
2013-01-20 08:33:00,34.0,34.0,30.19,WSW,251,0.0,0.0,100,0.00,,,0.05,,2013-01-20 13:33:00,
2013-01-20 08:43:00,34.0,34.0,30.19,WSW,251,0.0,0.0,100,0.00,,,0.05,,2013-01-20 13:43:00,
2013-01-20 08:52:00,34.0,34.0,30.20,WSW,251,0.0,0.0,100,0.00,,,0.05,,2013-01-20 13:52:00,
2013-01-20 09:02:00,35.0,35.0,30.20,WSW,251,0.0,0.0,100,0.00,,,0.05,,2013-01-20 14:02:00,
2013-01-20 09:12:00,35.0,35.0,30.20,WSW,251,0.0,0.0,100,0.00,,,0.05,,2013-01-20 14:12:00,
2013-01-20 09:23:00,35.0,35.0,30.20,WSW,251,0.0,0.0,100,0.00,,,0.05,,2013-01-20 14:23:00,
2013-01-20 09:33:00,37.0,37.0,30.21,WSW,251,0.0,0.0,100,0.00,,,0.05,,2013-01-20 14:33:00,
2013-01-20 09:43:00,37.0,37.0,30.21,WSW,251,0.0,0.0,100,0.00,,,0.05,,2013-01-20 14:43:00,
2013-01-20 09:53:00,38.0,38.0,30.21,WSW,251,0.0,0.0,100,0.00,,,0.05,,2013-01-20 14:53:00,
2013-01-20 10:03:00,40.0,39.0,30.21,WSW,251,0.0,0.0,95,0.00,,,0.05,,2013-01-20 15:03:00,
2013-01-20 10:12:00,40.0,39.0,30.21,WSW,251,0.0,0.0,95,0.00,,,0.05,,2013-01-20 15:12:00,
2013-01-20 10:23:00,42.0,40.0,30.21,WSW,251,0.0,0.0,91,0.00,,,0.05,,2013-01-20 15:23:00,
2013-01-20 10:33:00,44.0,39.0,30.21,WSW,251,0.0,0.0,81,0.00,,,0.05,,2013-01-20 15:33:00,
2013-01-20 10:42:00,44.0,39.0,30.21,WSW,251,0.0,0.0,81,0.00,,,0.05,,2013-01-20 15:42:00,
2013-01-20 10:52:00,45.0,39.0,30.21,WSW,251,0.0,0.0,78,0.00,,,0.05,,2013-01-20 15:52:00,
2013-01-20 11:03:00,47.0,38.0,30.22,WSW,251,0.0,0.0,71,0.00,,,0.05,,2013-01-20 16:03:00,
2013-01-20 11:12:00,47.0,38.0,30.22,WSW,251,0.0,0.0,71,0.00,,,0.05,,2013-01-20 16:12:00,
2013-01-20 11:23:00,47.0,38.0,30.22,WSW,251,0.0,0.0,71,0.00,,,0.05,,2013-01-20 16:23:00,
2013-01-20 11:33:00,47.0,38.0,30.22,WSW,251,0.0,0.0,71,0.00,,,0.05,,2013-01-20 16:33:00,
2013-01-20 11:40:00,50.0,40.0,30.21,South,174,1.0,8.0,68,0.00,,,0.04,,2013-01-20 16:40:00,
2013-01-20 11:43:00,47.0,38.0,30.22,WSW,251,0.0,0.0,71,0.00,,,0.05,,2013-01-20 16:43:00,
2013-01-20 11:52:00,49.0,39.0,30.21,South,183,1.0,8.0,67,0.00,,,0.05,,2013-01-20 16:52:00,
2013-01-20 12:03:00,50.0,40.0,30.21,South,174,1.0,8.0,68,0.00,,,0.04,,2013-01-20 17:03:00,
2013-01-20 12:13:00,50.0,40.0,30.21,South,174,1.0,8.0,68,0.00,,,0.04,,2013-01-20 17:13:00,
2013-01-20 12:22:00,50.0,40.0,30.21,South,174,1.0,8.0,68,0.00,,,0.04,,2013-01-20 17:22:00,
2013-01-20 12:33:00,50.0,40.0,30.21,South,174,1.0,8.0,68,0.00,,,0.04,,2013-01-20 17:33:00,
2013-01-20 13:03:00,51.0,38.0,30.17,SW,216,0.0,5.0,60,0.00,,,0.02,,2013-01-20 18:03:00,
2013-01-20 13:13:00,51.0,38.0,30.17,SW,216,0.0,5.0,60,0.00,,,0.02,,2013-01-20 18:13:00,
2013-01-20 13:23:00,51.0,38.0,30.17,SW,216,0.0,5.0,60,0.00,,,0.02,,2013-01-20 18:23:00,
2013-01-20 13:30:00,53.0,37.0,30.15,NW,326,0.0,5.0,54,0.00,,,0.01,,2013-01-20 18:30:00,
2013-01-20 13:33:00,53.0,38.0,30.15,West,278,0.0,7.0,57,0.00,,,0.01,,2013-01-20 18:33:00,
2013-01-20 13:43:00,53.0,38.0,30.15,West,278,0.0,7.0,57,0.00,,,0.01,,2013-01-20 18:43:00,
2013-01-20 13:53:00,53.0,37.0,30.15,NW,326,0.0,5.0,54,0.00,,,0.01,,2013-01-20 18:53:00,
2013-01-20 14:03:00,53.0,37.0,30.15,NW,326,0.0,5.0,54,0.00,,,0.01,,2013-01-20 19:03:00,
2013-01-20 14:12:00,53.0,37.0,30.15,NW,326,0.0,5.0,54,0.00,,,0.01,,2013-01-20 19:12:00,
2013-01-20 14:22:00,53.0,37.0,30.15,NW,326,0.0,5.0,54,0.00,,,0.01,,2013-01-20 19:22:00,
2013-01-20 14:53:00,55.0,38.0,30.13,WSW,241,0.0,0.0,52,0.00,,,0.00,,2013-01-20 19:53:00,
2013-01-20 15:03:00,56.0,37.0,30.13,WSW,241,0.0,0.0,49,0.00,,,0.00,,2013-01-20 20:03:00,
2013-01-20 15:12:00,56.0,37.0,30.13,WSW,241,0.0,0.0,49,0.00,,,0.00,,2013-01-20 20:12:00,
2013-01-20 15:23:00,55.0,37.0,30.13,ESE,103,0.0,5.0,50,0.00,,,0.00,,2013-01-20 20:23:00,
2013-01-20 15:30:00,55.0,36.0,30.13,SW,224,0.0,7.0,49,0.00,,,0.00,,2013-01-20 20:30:00,
2013-01-20 15:33:00,55.0,37.0,30.13,ESE,103,0.0,0.0,50,0.00,,,0.00,,2013-01-20 20:33:00,
2013-01-20 15:42:00,55.0,37.0,30.13,ESE,103,0.0,0.0,50,0.00,,,0.00,,2013-01-20 20:42:00,
2013-01-20 15:53:00,55.0,36.0,30.13,SW,224,0.0,7.0,49,0.00,,,0.00,,2013-01-20 20:53:00,
2013-01-20 16:03:00,55.0,36.0,30.13,SW,224,0.0,7.0,49,0.00,,,0.00,,2013-01-20 21:03:00,
2013-01-20 16:13:00,55.0,36.0,30.13,SW,224,0.0,7.0,49,0.00,,,0.00,,2013-01-20 21:13:00,
2013-01-20 16:23:00,55.0,36.0,30.13,SW,224,0.0,7.0,49,0.00,,,0.00,,2013-01-20 21:23:00,
2013-01-20 16:54:00,53.0,35.0,30.13,SW,224,0.0,0.0,50,0.00,,,0.00,,2013-01-20 21:54:00,
2013-01-20 17:03:00,53.0,35.0,30.13,SW,224,0.0,0.0,50,0.00,,,0.00,,2013-01-20 22:03:00,
2013-01-20 17:13:00,53.0,35.0,30.13,SW,224,0.0,0.0,50,0.00,,,0.00,,2013-01-20 22:13:00,
2013-01-20 17:23:00,51.0,37.0,30.13,SW,224,0.0,0.0,59,0.00,,,0.00,,2013-01-20 22:23:00,
2013-01-20 17:33:00,51.0,37.0,30.13,SW,224,0.0,0.0,59,0.00,,,0.00,,2013-01-20 22:33:00,
2013-01-20 17:43:00,51.0,37.0,30.13,SW,224,0.0,0.0,59,0.00,,,0.00,,2013-01-20 22:43:00,
2013-01-20 17:53:00,51.0,37.0,30.13,SW,224,0.0,0.0,59,0.00,,,0.00,,2013-01-20 22:53:00,
2013-01-20 18:03:00,47.0,36.0,30.14,SW,224,0.0,0.0,65,0.00,,,0.00,,2013-01-20 23:03:00,
2013-01-20 18:13:00,47.0,36.0,30.14,SW,224,0.0,0.0,65,0.00,,,0.00,,2013-01-20 23:13:00,
2013-01-20 18:23:00,47.0,36.0,30.14,SW,224,0.0,0.0,65,0.00,,,0.00,,2013-01-20 23:23:00,
2013-01-20 18:33:00,45.0,36.0,30.15,SW,224,0.0,0.0,71,0.00,,,0.00,,2013-01-20 23:33:00,
2013-01-20 18:43:00,45.0,36.0,30.15,SW,224,0.0,0.0,71,0.00,,,0.00,,2013-01-20 23:43:00,
2013-01-20 18:50:00,43.0,36.0,30.15,SW,224,0.0,0.0,77,0.00,,,0.00,,2013-01-20 23:50:00,
2013-01-20 18:53:00,45.0,36.0,30.15,SW,224,0.0,0.0,71,0.00,,,0.00,,2013-01-20 23:53:00,
2013-01-20 19:03:00,43.0,36.0,30.15,SW,224,0.0,0.0,77,0.00,,,0.00,,2013-01-21 00:03:00,
2013-01-20 19:13:00,43.0,36.0,30.15,SW,224,0.0,0.0,77,0.00,,,0.00,,2013-01-21 00:13:00,
2013-01-20 19:23:00,43.0,36.0,30.15,SW,224,0.0,0.0,77,0.00,,,0.00,,2013-01-21 00:23:00,
2013-01-20 19:33:00,43.0,36.0,30.15,SW,224,0.0,0.0,77,0.00,,,0.00,,2013-01-21 00:33:00,
2013-01-20 19:43:00,43.0,36.0,30.15,SW,224,0.0,0.0,77,0.00,,,0.00,,2013-01-21 00:43:00,
2013-01-20 20:53:00,39.0,35.0,30.15,SW,224,0.0,0.0,84,0.00,,,0.00,,2013-01-21 01:53:00,
2013-01-20 21:00:00,38.0,35.0,30.15,SW,224,0.0,0.0,88,0.00,,,0.00,,2013-01-21 02:00:00,
2013-01-20 21:03:00,38.0,34.0,30.15,SW,224,0.0,0.0,87,0.00,,,0.00,,2013-01-21 02:03:00,
2013-01-20 21:13:00,38.0,34.0,30.15,SW,224,0.0,0.0,87,0.00,,,0.00,,2013-01-21 02:13:00,
2013-01-20 21:23:00,38.0,35.0,30.15,SW,224,0.0,0.0,88,0.00,,,0.00,,2013-01-21 02:23:00,
2013-01-20 21:33:00,38.0,35.0,30.15,SW,224,0.0,0.0,88,0.00,,,0.00,,2013-01-21 02:33:00,
2013-01-20 21:43:00,38.0,35.0,30.15,SW,224,0.0,0.0,88,0.00,,,0.00,,2013-01-21 02:43:00,
2013-01-20 21:53:00,38.0,35.0,30.15,SW,224,0.0,0.0,88,0.00,,,0.00,,2013-01-21 02:53:00,
2013-01-20 22:40:00,35.0,34.0,30.15,SW,224,0.0,0.0,95,0.00,,,0.00,,2013-01-21 03:40:00,
2013-01-20 22:54:00,36.0,35.0,30.15,SW,224,0.0,0.0,95,0.00,,,0.00,,2013-01-21 03:54:00,
2013-01-20 23:03:00,35.0,34.0,30.15,SW,224,0.0,0.0,95,0.00,,,0.00,,2013-01-21 04:03:00,
2013-01-20 23:13:00,35.0,34.0,30.15,SW,224,0.0,0.0,95,0.00,,,0.00,,2013-01-21 04:13:00,
2013-01-20 23:23:00,35.0,34.0,30.15,SW,224,0.0,0.0,95,0.00,,,0.00,,2013-01-21 04:23:00,
2013-01-20 23:33:00,35.0,34.0,30.15,SW,224,0.0,0.0,95,0.00,,,0.00,,2013-01-21 04:33:00,